Location: ??
(35.5052°N, 139.7262°E)
Time: 02:22:25
(UTC+00:00)

Envisat - Pass Details

Date: 03 October 2021
Orbit: 764 x 766 km, 98.2° (Epoch: 17 October)

Event Time Altitude Azimuth Distance (km) Brightness Sun altitude
Rises 19:03:55 0° 24° (NNE) 3,234 6.7 -19.9°
Reaches altitude 10° 19:06:28 10° 34° (NE) 2,304 6.1 -19.4°
Maximum altitude 19:10:58 32° 97° (E) 1,302 4.9 -18.5°
Drops below altitude 10° 19:15:26 10° 159° (SSE) 2,291 5.6 -17.6°
Sets 19:17:58 0° 170° (S) 3,213 6.3 -17.1°
